EN

Hourly Weather Trento

Today, 3 December, Thursday

Time Temperature Precipitation Wind Pressure Humidity
00:00 +5°C° 0 mm 1 mps 738 mmHg 83%
01:00 +4°C° 0 mm 0 mps 738 mmHg 78%
02:00 +4°C° 0.1 mm 0 mps 738 mmHg 79%
03:00 +4°C° 0.1 mm 0 mps 737 mmHg 80%
04:00 +4°C° 0.1 mm 0 mps 737 mmHg 81%
05:00 +4°C° 0.4 mm 0 mps 737 mmHg 83%
06:00 +4°C° 0.4 mm 0 mps 737 mmHg 84%
07:00 +4°C° 0.4 mm 0 mps 737 mmHg 85%
08:00 +5°C° 0.3 mm 0 mps 737 mmHg 84%
09:00 +5°C° 0.3 mm 0 mps 737 mmHg 83%
10:00 +6°C° 0.3 mm 0 mps 737 mmHg 82%
11:00 +7°C° 0.1 mm 0 mps 737 mmHg 81%
12:00 +8°C° 0.1 mm 1 mps 736 mmHg 81%
13:00 +9°C° 0.1 mm 1 mps 736 mmHg 81%
14:00 +8°C° 0 mm 1 mps 736 mmHg 86%
15:00 +7°C° 0 mm 1 mps 735 mmHg 91%
16:00 +5°C° 0 mm 0 mps 735 mmHg 95%
17:00 +5°C° 0 mm 0 mps 735 mmHg 96%
18:00 +4°C° 0 mm 0 mps 735 mmHg 96%
19:00 +4°C° 0 mm 0 mps 735 mmHg 96%
20:00 +4°C° 0 mm 0 mps 735 mmHg 95%
21:00 +4°C° 0 mm 0 mps 735 mmHg 95%
22:00 +4°C° 0 mm 0 mps 735 mmHg 94%
23:00 +3°C° 0 mm 0 mps 734 mmHg 94%

Tomorrow, 4 December, Friday

Time Temperature Precipitation Wind Pressure Humidity
00:00 +3°C° 0 mm 0 mps 734 mmHg 94%
01:00 +3°C° 0 mm 0 mps 734 mmHg 94%
02:00 +3°C° 0 mm 0 mps 733 mmHg 93%
03:00 +2°C° 0 mm 0 mps 733 mmHg 92%
04:00 +3°C° 0 mm 1 mps 732 mmHg 92%
05:00 +3°C° 0.1 mm 1 mps 732 mmHg 93%
06:00 +4°C° 0.1 mm 1 mps 732 mmHg 94%
07:00 +4°C° 0.1 mm 1 mps 732 mmHg 95%
08:00 +4°C° 0.4 mm 1 mps 731 mmHg 94%
09:00 +5°C° 0.4 mm 1 mps 731 mmHg 94%
10:00 +6°C° 0.4 mm 1 mps 731 mmHg 93%
11:00 +6°C° 1.3 mm 1 mps 730 mmHg 94%
12:00 +6°C° 1.3 mm 1 mps 730 mmHg 95%
13:00 +6°C° 1.3 mm 1 mps 729 mmHg 96%
14:00 +6°C° 4.9 mm 1 mps 729 mmHg 97%
15:00 +6°C° 4.9 mm 1 mps 728 mmHg 97%
16:00 +6°C° 4.9 mm 1 mps 728 mmHg 98%
17:00 +6°C° 5.6 mm 1 mps 728 mmHg 98%
18:00 +6°C° 5.6 mm 1 mps 727 mmHg 98%
19:00 +5°C° 5.6 mm 2 mps 727 mmHg 98%
20:00 +6°C° 5.4 mm 2 mps 727 mmHg 98%
21:00 +6°C° 5.4 mm 2 mps 727 mmHg 99%
22:00 +6°C° 5.4 mm 2 mps 727 mmHg 99%
23:00 +6°C° 5 mm 2 mps 727 mmHg 99%

Day after tomorrow, 5 December, Saturday

Time Temperature Precipitation Wind Pressure Humidity
00:00 +6°C° 5 mm 2 mps 727 mmHg 99%
01:00 +7°C° 5 mm 2 mps 727 mmHg 99%
02:00 +7°C° 5.3 mm 2 mps 727 mmHg 99%
03:00 +7°C° 5.3 mm 2 mps 727 mmHg 99%
04:00 +7°C° 5.3 mm 2 mps 727 mmHg 99%
05:00 +8°C° 0.9 mm 1 mps 727 mmHg 99%
06:00 +8°C° 0.9 mm 1 mps 727 mmHg 99%
07:00 +8°C° 0.9 mm 1 mps 728 mmHg 99%
08:00 +8°C° 3.1 mm 1 mps 727 mmHg 99%
09:00 +8°C° 3.1 mm 1 mps 727 mmHg 99%
10:00 +7°C° 3.1 mm 2 mps 727 mmHg 99%
11:00 +7°C° 5.6 mm 2 mps 727 mmHg 99%
12:00 +7°C° 5.6 mm 2 mps 727 mmHg 99%
13:00 +7°C° 5.6 mm 2 mps 727 mmHg 99%
14:00 +7°C° 4 mm 2 mps 728 mmHg 99%
15:00 +7°C° 4 mm 2 mps 728 mmHg 99%
16:00 +7°C° 4 mm 2 mps 728 mmHg 99%
17:00 +7°C° 0.7 mm 2 mps 729 mmHg 99%
18:00 +8°C° 0.7 mm 1 mps 729 mmHg 99%
19:00 +8°C° 0.7 mm 1 mps 729 mmHg 98%
20:00 +8°C° 1.5 mm 1 mps 729 mmHg 98%
21:00 +8°C° 1.5 mm 1 mps 730 mmHg 98%
22:00 +8°C° 1.5 mm 1 mps 730 mmHg 98%
23:00 +8°C° 0.9 mm 1 mps 730 mmHg 98%

6 December, Sunday

Time Temperature Precipitation Wind Pressure Humidity
00:00 +8°C° 0.9 mm 1 mps 730 mmHg 98%
01:00 +8°C° 0.9 mm 1 mps 730 mmHg 98%
02:00 +8°C° 1 mm 1 mps 730 mmHg 98%
03:00 +8°C° 1 mm 1 mps 730 mmHg 99%
04:00 +8°C° 1 mm 1 mps 730 mmHg 99%
05:00 +8°C° 1.1 mm 1 mps 730 mmHg 99%
06:00 +8°C° 1.1 mm 1 mps 730 mmHg 99%
07:00 +8°C° 1.1 mm 1 mps 730 mmHg 99%
08:00 +7°C° 0.9 mm 0 mps 729 mmHg 98%
09:00 +7°C° 0.9 mm 0 mps 729 mmHg 98%
10:00 +7°C° 0.9 mm 0 mps 729 mmHg 98%
11:00 +8°C° 1.5 mm 1 mps 728 mmHg 98%
12:00 +8°C° 1.5 mm 1 mps 728 mmHg 98%
13:00 +8°C° 1.5 mm 1 mps 727 mmHg 98%
14:00 +8°C° 2.3 mm 1 mps 727 mmHg 98%
15:00 +7°C° 2.3 mm 1 mps 727 mmHg 98%
16:00 +7°C° 2.3 mm 1 mps 726 mmHg 98%
17:00 +7°C° 2.7 mm 1 mps 727 mmHg 98%
18:00 +7°C° 2.7 mm 1 mps 727 mmHg 98%
19:00 +7°C° 2.7 mm 1 mps 727 mmHg 98%
20:00 +7°C° 1.5 mm 1 mps 728 mmHg 98%
21:00 +7°C° 1.5 mm 1 mps 728 mmHg 98%
22:00 +7°C° 1.5 mm 1 mps 729 mmHg 98%
23:00 +6°C° 0.2 mm 1 mps 729 mmHg 97%

7 December, Monday

Time Temperature Precipitation Wind Pressure Humidity
00:00 +6°C° 0.2 mm 1 mps 730 mmHg 96%
01:00 +6°C° 0.2 mm 1 mps 730 mmHg 95%
02:00 +5°C° 0 mm 1 mps 731 mmHg 93%
03:00 +4°C° 0 mm 1 mps 731 mmHg 91%
04:00 +3°C° 0 mm 1 mps 732 mmHg 89%
05:00 +2°C° 0 mm 1 mps 733 mmHg 88%
06:00 +2°C° 0 mm 1 mps 733 mmHg 87%
07:00 +1°C° 0 mm 1 mps 734 mmHg 86%
08:00 +3°C° 0 mm 1 mps 734 mmHg 88%
09:00 +4°C° 0 mm 1 mps 735 mmHg 91%
10:00 +5°C° 0 mm 1 mps 735 mmHg 93%
11:00 +6°C° 0.3 mm 1 mps 735 mmHg 94%
12:00 +6°C° 0.3 mm 1 mps 735 mmHg 95%
13:00 +7°C° 0.3 mm 1 mps 735 mmHg 96%
14:00 +6°C° 0.4 mm 1 mps 736 mmHg 97%
15:00 +6°C° 0.4 mm 1 mps 736 mmHg 97%
16:00 +6°C° 0.4 mm 1 mps 736 mmHg 97%
17:00 +5°C° 0.2 mm 1 mps 736 mmHg 96%
18:00 +5°C° 0.2 mm 1 mps 737 mmHg 95%
19:00 +4°C° 0.2 mm 1 mps 737 mmHg 93%
20:00 +4°C° 0.3 mm 1 mps 737 mmHg 93%
21:00 +5°C° 0.3 mm 1 mps 737 mmHg 93%
22:00 +4°C° 0.3 mm 2 mps 738 mmHg 93%
23:00 +4°C° 0.6 mm 2 mps 738 mmHg 94%

8 December, Tuesday

Time Temperature Precipitation Wind Pressure Humidity
00:00 +4°C° 0.6 mm 2 mps 737 mmHg 95%
01:00 +4°C° 0.6 mm 2 mps 737 mmHg 96%
02:00 +3°C° 0.6 mm 2 mps 737 mmHg 96%
03:00 +4°C° 0.6 mm 1 mps 737 mmHg 96%
04:00 +4°C° 0.6 mm 1 mps 737 mmHg 96%
05:00 +4°C° 1.1 mm 1 mps 737 mmHg 96%
06:00 +4°C° 1.1 mm 1 mps 737 mmHg 96%
07:00 +4°C° 1.1 mm 1 mps 737 mmHg 97%
08:00 +4°C° 0.8 mm 1 mps 737 mmHg 97%
09:00 +5°C° 0.8 mm 1 mps 737 mmHg 97%
10:00 +5°C° 0.8 mm 1 mps 737 mmHg 97%
11:00 +6°C° 0.8 mm 1 mps 736 mmHg 97%
12:00 +6°C° 0.8 mm 1 mps 736 mmHg 97%
13:00 +6°C° 0.8 mm 1 mps 736 mmHg 98%
14:00 +6°C° 0.5 mm 1 mps 736 mmHg 98%
15:00 +6°C° 0.5 mm 1 mps 736 mmHg 98%
16:00 +5°C° 0.5 mm 0 mps 736 mmHg 98%
17:00 +4°C° 0.2 mm 0 mps 736 mmHg 97%
18:00 +4°C° 0.2 mm 0 mps 736 mmHg 96%
19:00 +3°C° 0.2 mm 0 mps 736 mmHg 96%
20:00 +3°C° 0 mm 0 mps 737 mmHg 95%
21:00 +4°C° 0 mm 1 mps 737 mmHg 94%
22:00 +3°C° 0 mm 1 mps 737 mmHg 94%
23:00 +3°C° 0 mm 1 mps 737 mmHg 93%
Show more

We Need Your Consent

Meteoprog and our Service Providers may store and access personal data such as cookies, device identifiers or other similar technologies on your device and process such data to personalise content and ads, as well as provide social media features and to analyse the traffic.

  • Store and/or access information on your device

    Cookies, device identifiers or other information can be stored or accessed on your device for the purposes indicated above.

  • Personalised ads and content, ad and content measurement, audience insights, and products development

    Ads and content can be personalised based on a profile. More data can be added to better personalise ads and content. Ad and content performance can be measured. Insights about the audience who saw the ads and content can be derived. Such data can be used to develop or improve user’s experience, systems and software.

By clicking ‘I Agree’ you will allow the use of indicated cookies, device identifiers, web beacons or other similar technologies. Your settings can be changed in the browser on your device.

For certain purposes, legitimate interests may be relied on, rather than consent. You can read more about this in our Privacy and Cookie Policy.